Terminal Aerodrome Forecast
Issued by NWS

Home | Current Version | Previous Version | Text Only | Print | Product List | Glossary On
Versions: 1 2 3 4 5 6 7 8 9 10 11 12 13 14 15 16 17 18 19 20 21 22 23 24 25 26 27 28 29 30 31 32
000
FTUS45 KSLC 201307 AAA
TAFEVW
TAF AMD
KEVW 201307Z 2013/2112 21005KT P6SM VCSH SCT070 BKN100
      TEMPO 2013/2014 1SM BR BKN004
     FM201800 26011G17KT P6SM SCT100 BKN120
     FM210100 22008KT P6SM SCT100=

USA.gov is the U.S. government's official web portal to all federal, state and local government web resources and services.